QPF
0.00 0.00 0.00 0.01 0.02 0.03 0.05 0.05 0.02 0.01 0.01 0.00 0.00 0.00 0.00 0.01 0.01 0.02 0.02 0.01 0.01 0.00 0.00 0.00 0.01 0.01 0.00 0.00 0.00 0.00 0.00 0.01 0.01 0.01 0.02 0.01 0.04 0.10 0.12 0.13 0.10 0.09 0.08 0.10 0.12 0.12 0.10 0.08 0.07
0.00 0.00 0.00 0.01 0.03 0.03 0.04 0.03 0.02 0.01 0.00 0.00 0.00 0.00 0.00 0.00 0.00 0.00 0.01 0.01 0.00 0.00 0.00 0.00 0.00 0.00 0.00 0.00 0.00 0.00 0.01 0.01 0.01 0.02 0.01 0.01 0.02 0.03 0.04 0.07 0.07 0.07 0.07 0.07 0.09 0.11 0.11 0.09 0.07
0.00 0.00 0.00 0.01 0.02 0.02 0.03 0.03 0.02 0.01 0.01 0.00 0.00 0.00 0.00 0.00 0.00 0.00 0.01 0.00 0.00 0.00 0.00 0.01 0.01 0.00 0.00 0.00 0.00 0.00 0.01 0.01 0.01 0.01 0.01 0.01 0.01 0.01 0.03 0.05 0.05 0.05 0.05 0.07 0.08 0.10 0.11 0.09 0.06
0.00 0.00 0.01 0.01 0.02 0.02 0.02 0.02 0.02 0.02 0.01 0.00 0.00 0.01 0.00 0.00 0.00 0.00 0.00 0.01 0.00 0.00 0.00 0.01 0.02 0.01 0.00 0.00 0.00 0.00 0.00 0.00 0.01 0.01 0.01 0.01 0.01 0.01 0.03 0.04 0.04 0.04 0.04 0.05 0.09 0.09 0.08 0.05 0.03
0.00 0.01 0.02 0.02 0.02 0.01 0.01 0.01 0.01 0.03 0.01 0.01 0.02 0.02 0.00 0.01 0.00 0.00 0.01 0.01 0.00 0.00 0.00 0.01 0.02 0.02 0.00 0.00 0.00 0.00 0.00 0.00 0.00 0.01 0.01 0.01 0.01 0.02 0.03 0.04 0.04 0.04 0.05 0.05 0.06 0.04 0.04 0.04 0.02
0.00 0.01 0.03 0.03 0.03 0.01 0.01 0.02 0.02 0.03 0.02 0.01 0.02 0.02 0.01 0.02 0.01 0.00 0.01 0.01 0.01 0.00 0.00 0.01 0.02 0.03 0.02 0.00 0.00 0.01 0.01 0.00 0.01 0.01 0.01 0.01 0.01 0.01 0.03 0.05 0.05 0.04 0.04 0.03 0.02 0.03 0.03 0.03 0.03
0.00 0.02 0.07 0.05 0.03 0.02 0.01 0.02 0.02 0.04 0.02 0.01 0.01 0.01 0.02 0.03 0.02 0.01 0.01 0.01 0.01 0.00 0.01 0.01 0.02 0.03 0.02 0.01 0.00 0.01 0.01 0.01 0.01 0.01 0.02 0.02 0.02 0.02 0.03 0.05 0.05 0.04 0.05 0.03 0.02 0.03 0.03 0.03 0.03
0.00 0.02 0.06 0.05 0.04 0.02 0.01 0.02 0.02 0.02 0.02 0.01 0.01 0.01 0.01 0.01 0.01 0.01 0.01 0.01 0.01 0.01 0.02 0.01 0.02 0.01 0.01 0.01 0.00 0.01 0.01 0.01 0.01 0.01 0.02 0.02 0.03 0.03 0.03 0.04 0.07 0.05 0.05 0.05 0.04 0.06 0.05 0.05 0.05
0.00 0.01 0.03 0.06 0.05 0.03 0.02 0.02 0.02 0.01 0.01 0.01 0.01 0.01 0.00 0.00 0.01 0.01 0.01 0.01 0.01 0.02 0.02 0.02 0.01 0.01 0.02 0.01 0.01 0.01 0.01 0.01 0.01 0.00 0.02 0.03 0.04 0.04 0.04 0.05 0.08 0.07 0.05 0.05 0.06 0.07 0.06 0.05 0.05
0.00 0.01 0.03 0.03 0.03 0.03 0.02 0.04 0.02 0.02 0.01 0.01 0.01 0.01 0.01 0.01 0.01 0.01 0.01 0.01 0.01 0.02 0.02 0.02 0.01 0.01 0.02 0.01 0.00 0.01 0.00 0.00 0.00 0.00 0.01 0.03 0.04 0.06 0.06 0.06 0.08 0.06 0.05 0.05 0.05 0.05 0.04 0.04 0.03
0.00 0.00 0.02 0.02 0.02 0.02 0.03 0.03 0.02 0.02 0.02 0.02 0.01 0.02 0.01 0.01 0.01 0.01 0.01 0.01 0.02 0.03 0.04 0.04 0.03 0.02 0.02 0.01 0.01 0.01 0.00 0.00 0.00 0.00 0.02 0.04 0.07 0.10 0.13 0.12 0.10 0.08 0.05 0.04 0.03 0.03 0.04 0.03 0.03
0.00 0.01 0.01 0.02 0.02 0.03 0.02 0.01 0.02 0.03 0.01 0.02 0.02 0.02 0.02 0.01 0.01 0.02 0.01 0.01 0.01 0.03 0.05 0.05 0.06 0.06 0.04 0.03 0.02 0.02 0.01 0.01 0.01 0.01 0.03 0.05 0.09 0.15 0.18 0.14 0.10 0.06 0.04 0.04 0.04 0.04 0.05 0.03 0.03
0.00 0.02 0.02 0.02 0.02 0.02 0.02 0.01 0.01 0.02 0.02 0.01 0.01 0.02 0.02 0.01 0.01 0.01 0.01 0.01 0.01 0.03 0.03 0.03 0.06 0.07 0.06 0.04 0.03 0.02 0.02 0.01 0.02 0.02 0.03 0.05 0.07 0.12 0.16 0.13 0.09 0.07 0.05 0.03 0.04 0.04 0.04 0.03 0.04
0.03 0.03 0.03 0.01 0.01 0.01 0.01 0.01 0.01 0.02 0.02 0.02 0.05 0.08 0.05 0.03 0.03 0.02 0.02 0.02 0.01 0.01 0.02 0.02 0.03 0.05 0.07 0.06 0.04 0.03 0.03 0.02 0.02 0.01 0.03 0.03 0.03 0.06 0.09 0.12 0.10 0.07 0.04 0.04 0.04 0.04 0.04 0.05 0.04
0.02 0.02 0.02 0.02 0.02 0.01 0.01 0.02 0.02 0.03 0.03 0.07 0.09 0.06 0.10 0.08 0.04 0.03 0.02 0.02 0.01 0.01 0.01 0.02 0.03 0.03 0.05 0.06 0.05 0.04 0.04 0.03 0.02 0.02 0.04 0.04 0.04 0.04 0.05 0.07 0.07 0.05 0.05 0.04 0.05 0.06 0.05 0.06 0.05
0.00 0.01 0.01 0.01 0.02 0.02 0.02 0.03 0.02 0.03 0.05 0.10 0.13 0.05 0.10 0.10 0.04 0.03 0.02 0.03 0.03 0.01 0.01 0.01 0.02 0.03 0.03 0.04 0.03 0.04 0.04 0.04 0.02 0.03 0.04 0.06 0.03 0.03 0.04 0.06 0.06 0.05 0.05 0.06 0.06 0.05 0.05 0.06 0.05
0.00 0.01 0.01 0.01 0.01 0.02 0.03 0.03 0.03 0.05 0.07 0.06 0.12 0.10 0.07 0.08 0.05 0.03 0.02 0.02 0.03 0.02 0.01 0.02 0.03 0.03 0.02 0.02 0.03 0.04 0.04 0.05 0.05 0.04 0.04 0.03 0.03 0.05 0.03 0.05 0.06 0.07 0.06 0.06 0.05 0.03 0.04 0.06 0.08
0.01 0.01 0.01 0.02 0.01 0.02 0.03 0.06 0.07 0.08 0.07 0.06 0.11 0.09 0.05 0.05 0.07 0.06 0.03 0.02 0.03 0.04 0.03 0.02 0.03 0.04 0.02 0.02 0.03 0.03 0.03 0.04 0.05 0.05 0.03 0.02 0.03 0.04 0.04 0.04 0.04 0.06 0.06 0.06 0.05 0.04 0.03 0.05 0.08
0.00 0.02 0.02 0.01 0.01 0.01 0.01 0.02 0.03 0.06 0.08 0.08 0.07 0.05 0.03 0.04 0.04 0.04 0.04 0.03 0.03 0.03 0.03 0.02 0.01 0.02 0.03 0.03 0.03 0.03 0.02 0.02 0.02 0.03 0.03 0.02 0.03 0.04 0.04 0.04 0.04 0.05 0.05 0.06 0.06 0.06 0.04 0.04 0.07
0.00 0.01 0.01 0.01 0.01 0.01 0.02 0.01 0.02 0.05 0.11 0.08 0.05 0.04 0.04 0.03 0.02 0.02 0.03 0.02 0.02 0.02 0.03 0.03 0.02 0.03 0.04 0.03 0.03 0.03 0.03 0.03 0.03 0.04 0.04 0.03 0.03 0.03 0.03 0.04 0.04 0.05 0.07 0.07 0.06 0.06 0.06 0.06 0.06
0.00 0.01 0.00 0.00 0.01 0.01 0.01 0.03 0.04 0.07 0.08 0.05 0.04 0.03 0.03 0.04 0.03 0.02 0.02 0.02 0.01 0.02 0.02 0.02 0.03 0.03 0.04 0.04 0.03 0.03 0.02 0.02 0.03 0.02 0.02 0.02 0.02 0.02 0.02 0.02 0.03 0.04 0.06 0.07 0.07 0.05 0.05 0.05 0.06
0.00 0.01 0.00 0.00 0.01 0.01 0.01 0.04 0.07 0.11 0.07 0.03 0.03 0.02 0.02 0.02 0.02 0.02 0.01 0.01 0.01 0.01 0.02 0.01 0.01 0.02 0.04 0.04 0.04 0.04 0.03 0.03 0.01 0.01 0.01 0.01 0.02 0.01 0.01 0.02 0.02 0.03 0.03 0.05 0.06 0.05 0.04 0.04 0.05
0.01 0.03 0.01 0.00 0.01 0.01 0.01 0.03 0.04 0.06 0.03 0.02 0.01 0.02 0.02 0.01 0.01 0.01 0.02 0.01 0.01 0.01 0.02 0.02 0.01 0.02 0.02 0.03 0.04 0.04 0.04 0.04 0.03 0.02 0.01 0.01 0.01 0.01 0.02 0.02 0.03 0.03 0.03 0.05 0.05 0.04 0.04 0.04 0.04
0.00 0.01 0.01 0.01 0.01 0.01 0.03 0.03 0.03 0.03 0.03 0.05 0.06 0.05 0.03 0.02 0.02 0.03 0.02 0.01 0.01 0.01 0.02 0.02 0.02 0.02 0.01 0.01 0.03 0.03 0.03 0.03 0.03 0.03 0.02 0.02 0.01 0.01 0.01 0.02 0.03 0.04 0.04 0.04 0.04 0.04 0.04 0.04 0.04
0.00 0.01 0.01 0.02 0.02 0.03 0.02 0.02 0.02 0.02 0.05 0.07 0.12 0.08 0.07 0.06 0.04 0.04 0.03 0.02 0.01 0.01 0.02 0.02 0.02 0.01 0.01 0.00 0.01 0.02 0.03 0.03 0.02 0.02 0.02 0.02 0.02 0.01 0.01 0.02 0.03 0.04 0.04 0.05 0.04 0.03 0.02 0.04 0.05
0.00 0.00 0.01 0.02 0.01 0.02 0.02 0.02 0.03 0.02 0.04 0.13 0.10 0.07 0.09 0.14 0.10 0.07 0.04 0.04 0.02 0.02 0.02 0.01 0.02 0.01 0.00 0.00 0.01 0.01 0.02 0.02 0.02 0.01 0.01 0.02 0.01 0.02 0.02 0.02 0.03 0.04 0.04 0.04 0.03 0.03 0.03 0.03 0.04
0.00 0.00 0.00 0.01 0.01 0.02 0.02 0.03 0.05 0.05 0.04 0.08 0.05 0.05 0.05 0.09 0.08 0.05 0.04 0.05 0.03 0.02 0.01 0.01 0.01 0.01 0.01 0.00 0.00 0.01 0.01 0.01 0.02 0.02 0.02 0.01 0.01 0.01 0.02 0.02 0.02 0.02 0.03 0.03 0.02 0.02 0.03 0.03 0.04
0.01 0.01 0.01 0.02 0.03 0.03 0.04 0.06 0.08 0.06 0.06 0.06 0.04 0.03 0.03 0.04 0.04 0.05 0.05 0.04 0.04 0.03 0.02 0.01 0.01 0.01 0.01 0.00 0.00 0.00 0.01 0.01 0.01 0.02 0.02 0.02 0.01 0.01 0.01 0.01 0.01 0.01 0.02 0.02 0.02 0.02 0.03 0.03 0.03
0.02 0.02 0.01 0.02 0.02 0.03 0.03 0.04 0.05 0.06 0.07 0.08 0.07 0.06 0.06 0.07 0.06 0.05 0.06 0.05 0.04 0.03 0.02 0.01 0.01 0.01 0.01 0.01 0.01 0.01 0.00 0.00 0.00 0.01 0.01 0.02 0.02 0.02 0.02 0.01 0.02 0.01 0.01 0.02 0.02 0.02 0.02 0.02 0.03
0.01 0.02 0.02 0.03 0.04 0.04 0.02 0.02 0.02 0.04 0.07 0.07 0.11 0.14 0.13 0.15 0.08 0.05 0.04 0.04 0.04 0.03 0.03 0.02 0.02 0.02 0.02 0.03 0.03 0.02 0.01 0.01 0.01 0.00 0.01 0.02 0.03 0.04 0.03 0.02 0.02 0.02 0.02 0.02 0.02 0.02 0.02 0.03 0.04
MSLP
1007.50 1008.60 1009.89 1011.14 1012.14 1012.73 1012.80 1012.40 1011.62 1010.66 1009.72 1008.96 1008.50 1008.35 1008.44 1008.67 1008.90 1009.02 1008.98 1008.79 1008.51 1008.23 1008.04 1008.00 1008.13 1008.40 1008.73 1009.06 1009.32 1009.48 1009.56 1009.57 1009.59 1009.66 1009.79 1010.00 1010.26 1010.52 1010.74 1010.90 1010.99 1011.02 1011.02 1011.01 1011.03 1011.07 1011.13 1011.21 1011.29
1007.94 1009.24 1010.63 1011.86 1012.73 1013.09 1012.89 1012.19 1011.16 1009.98 1008.89 1008.04 1007.53 1007.36 1007.46 1007.71 1007.97 1008.14 1008.17 1008.08 1007.93 1007.79 1007.76 1007.86 1008.11 1008.47 1008.85 1009.20 1009.46 1009.62 1009.69 1009.72 1009.76 1009.84 1009.99 1010.20 1010.43 1010.64 1010.80 1010.88 1010.89 1010.85 1010.81 1010.78 1010.78 1010.83 1010.90 1011.00 1011.10
1008.57 1010.00 1011.41 1012.55 1013.23 1013.34 1012.86 1011.90 1010.64 1009.29 1008.09 1007.18 1006.65 1006.47 1006.57 1006.83 1007.10 1007.30 1007.39 1007.39 1007.35 1007.36 1007.47 1007.72 1008.08 1008.52 1008.96 1009.33 1009.60 1009.75 1009.83 1009.86 1009.91 1010.00 1010.16 1010.35 1010.54 1010.70 1010.78 1010.79 1010.73 1010.65 1010.57 1010.53 1010.55 1010.62 1010.73 1010.87 1011.01
1009.32 1010.79 1012.14 1013.13 1013.59 1013.44 1012.71 1011.53 1010.10 1008.65 1007.40 1006.48 1005.95 1005.79 1005.89 1006.14 1006.41 1006.63 1006.76 1006.83 1006.89 1007.03 1007.27 1007.64 1008.11 1008.61 1009.09 1009.47 1009.73 1009.87 1009.94 1009.97 1010.01 1010.11 1010.26 1010.43 1010.59 1010.70 1010.73 1010.68 1010.58 1010.46 1010.37 1010.35 1010.40 1010.51 1010.68 1010.87 1011.07
1010.10 1011.53 1012.73 1013.51 1013.73 1013.33 1012.39 1011.06 1009.55 1008.08 1006.85 1005.98 1005.49 1005.36 1005.48 1005.72 1005.99 1006.20 1006.36 1006.49 1006.64 1006.88 1007.24 1007.70 1008.24 1008.79 1009.27 1009.64 1009.87 1009.98 1010.01 1010.02 1010.05 1010.14 1010.28 1010.43 1010.57 1010.66 1010.66 1010.58 1010.47 1010.34 1010.27 1010.27 1010.35 1010.52 1010.73 1010.98 1011.22
1010.82 1012.11 1013.11 1013.64 1013.60 1012.99 1011.90 1010.50 1008.98 1007.58 1006.44 1005.67 1005.27 1005.20 1005.34 1005.58 1005.84 1006.06 1006.23 1006.41 1006.64 1006.96 1007.39 1007.93 1008.51 1009.06 1009.52 1009.84 1010.01 1010.06 1010.04 1010.01 1010.02 1010.10 1010.23 1010.38 1010.52 1010.60 1010.60 1010.53 1010.41 1010.31 1010.25 1010.28 1010.39 1010.59 1010.85 1011.12 1011.41
1011.37 1012.46 1013.20 1013.46 1013.19 1012.41 1011.24 1009.84 1008.40 1007.12 1006.14 1005.51 1005.23 1005.23 1005.41 1005.67 1005.92 1006.14 1006.34 1006.56 1006.84 1007.22 1007.72 1008.29 1008.87 1009.40 1009.80 1010.05 1010.15 1010.12 1010.04 1009.96 1009.94 1010.00 1010.13 1010.29 1010.44 1010.54 1010.56 1010.51 1010.42 1010.33 1010.29 1010.33 1010.46 1010.67 1010.94 1011.23 1011.53
1011.70 1012.54 1013.01 1013.01 1012.54 1011.64 1010.44 1009.10 1007.79 1006.69 1005.90 1005.44 1005.29 1005.37 1005.59 1005.87 1006.13 1006.37 1006.59 1006.84 1007.17 1007.59 1008.11 1008.69 1009.26 1009.74 1010.07 1010.24 1010.25 1010.15 1010.00 1009.88 1009.83 1009.88 1010.01 1010.19 1010.36 1010.49 1010.54 1010.52 1010.45 1010.37 1010.34 1010.37 1010.49 1010.69 1010.94 1011.22 1011.52
1011.80 1012.37 1012.58 1012.35 1011.72 1010.75 1009.57 1008.33 1007.19 1006.29 1005.68 1005.38 1005.35 1005.52 1005.79 1006.09 1006.36 1006.61 1006.86 1007.14 1007.50 1007.95 1008.48 1009.04 1009.57 1009.99 1010.26 1010.35 1010.29 1010.13 1009.93 1009.78 1009.72 1009.77 1009.91 1010.10 1010.30 1010.46 1010.54 1010.54 1010.49 1010.42 1010.37 1010.37 1010.46 1010.61 1010.83 1011.09 1011.37
1011.67 1012.01 1011.98 1011.57 1010.82 1009.82 1008.70 1007.60 1006.63 1005.91 1005.47 1005.31 1005.39 1005.61 1005.92 1006.23 1006.53 1006.79 1007.06 1007.36 1007.74 1008.19 1008.71 1009.24 1009.71 1010.08 1010.28 1010.32 1010.22 1010.04 1009.83 1009.67 1009.61 1009.67 1009.83 1010.05 1010.27 1010.45 1010.56 1010.57 1010.52 1010.44 1010.37 1010.33 1010.36 1010.47 1010.64 1010.86 1011.13
1011.39 1011.52 1011.30 1010.76 1009.95 1008.97 1007.93 1006.96 1006.15 1005.58 1005.28 1005.23 1005.37 1005.63 1005.95 1006.28 1006.58 1006.86 1007.13 1007.45 1007.82 1008.25 1008.73 1009.21 1009.63 1009.94 1010.11 1010.13 1010.03 1009.85 1009.67 1009.54 1009.51 1009.60 1009.78 1010.02 1010.26 1010.46 1010.58 1010.61 1010.56 1010.47 1010.36 1010.28 1010.26 1010.31 1010.42 1010.61 1010.86
1011.04 1010.99 1010.64 1010.01 1009.19 1008.26 1007.32 1006.48 1005.80 1005.36 1005.15 1005.15 1005.31 1005.59 1005.91 1006.23 1006.53 1006.81 1007.09 1007.39 1007.73 1008.11 1008.53 1008.94 1009.30 1009.57 1009.73 1009.75 1009.69 1009.56 1009.44 1009.37 1009.39 1009.52 1009.72 1009.98 1010.24 1010.46 1010.59 1010.64 1010.60 1010.50 1010.38 1010.26 1010.20 1010.20 1010.27 1010.43 1010.65
1010.67 1010.50 1010.06 1009.40 1008.60 1007.75 1006.92 1006.19 1005.62 1005.26 1005.09 1005.11 1005.27 1005.53 1005.83 1006.14 1006.44 1006.71 1006.96 1007.23 1007.51 1007.83 1008.16 1008.48 1008.78 1009.01 1009.16 1009.22 1009.22 1009.18 1009.14 1009.15 1009.24 1009.40 1009.64 1009.91 1010.18 1010.41 1010.57 1010.64 1010.62 1010.54 1010.43 1010.31 1010.23 1010.20 1010.25 1010.37 1010.58
1010.36 1010.09 1009.60 1008.95 1008.22 1007.46 1006.74 1006.11 1005.62 1005.30 1005.14 1005.15 1005.28 1005.50 1005.78 1006.07 1006.35 1006.61 1006.84 1007.05 1007.26 1007.47 1007.70 1007.93 1008.14 1008.33 1008.49 1008.60 1008.67 1008.73 1008.79 1008.89 1009.03 1009.24 1009.49 1009.77 1010.04 1010.29 1010.48 1010.59 1010.63 1010.60 1010.52 1010.44 1010.36 1010.33 1010.36 1010.47 1010.65
1010.12 1009.78 1009.28 1008.67 1008.02 1007.37 1006.76 1006.22 1005.79 1005.48 1005.30 1005.26 1005.34 1005.52 1005.77 1006.05 1006.32 1006.56 1006.76 1006.92 1007.04 1007.15 1007.26 1007.38 1007.51 1007.66 1007.82 1007.98 1008.13 1008.28 1008.43 1008.60 1008.79 1009.01 1009.26 1009.53 1009.81 1010.07 1010.29 1010.47 1010.57 1010.62 1010.63 1010.60 1010.57 1010.56 1010.59 1010.68 1010.83
1009.95 1009.56 1009.08 1008.54 1008.00 1007.46 1006.95 1006.49 1006.08 1005.75 1005.53 1005.43 1005.45 1005.59 1005.81 1006.08 1006.35 1006.59 1006.78 1006.89 1006.93 1006.94 1006.94 1006.95 1007.00 1007.11 1007.27 1007.46 1007.68 1007.90 1008.13 1008.34 1008.55 1008.76 1008.98 1009.23 1009.49 1009.75 1010.01 1010.25 1010.44 1010.60 1010.70 1010.76 1010.80 1010.83 1010.87 1010.95 1011.06
1009.81 1009.41 1008.97 1008.53 1008.11 1007.70 1007.28 1006.87 1006.46 1006.09 1005.80 1005.61 1005.56 1005.64 1005.83 1006.11 1006.40 1006.66 1006.84 1006.93 1006.93 1006.87 1006.78 1006.71 1006.70 1006.77 1006.93 1007.15 1007.42 1007.69 1007.95 1008.18 1008.37 1008.55 1008.72 1008.90 1009.12 1009.37 1009.65 1009.95 1010.23 1010.49 1010.70 1010.86 1010.98 1011.06 1011.13 1011.19 1011.27
1009.65 1009.28 1008.93 1008.63 1008.34 1008.05 1007.72 1007.33 1006.90 1006.45 1006.05 1005.75 1005.59 1005.61 1005.78 1006.05 1006.38 1006.69 1006.91 1007.02 1007.01 1006.92 1006.78 1006.67 1006.62 1006.68 1006.84 1007.09 1007.39 1007.70 1007.97 1008.19 1008.34 1008.45 1008.53 1008.64 1008.78 1009.00 1009.27 1009.60 1009.95 1010.30 1010.61 1010.87 1011.07 1011.20 1011.29 1011.35 1011.40
1009.45 1009.16 1008.95 1008.81 1008.68 1008.51 1008.24 1007.85 1007.35 1006.78 1006.23 1005.78 1005.50 1005.43 1005.56 1005.85 1006.22 1006.59 1006.89 1007.06 1007.10 1007.03 1006.90 1006.79 1006.75 1006.82 1007.01 1007.29 1007.62 1007.95 1008.23 1008.41 1008.51 1008.53 1008.51 1008.51 1008.56 1008.70 1008.94 1009.27 1009.65 1010.06 1010.44 1010.78 1011.04 1011.23 1011.35 1011.42 1011.45
1009.19 1009.06 1009.03 1009.08 1009.13 1009.07 1008.84 1008.42 1007.81 1007.08 1006.34 1005.70 1005.26 1005.07 1005.14 1005.43 1005.85 1006.31 1006.70 1006.98 1007.11 1007.12 1007.06 1007.00 1007.01 1007.13 1007.37 1007.70 1008.07 1008.42 1008.70 1008.86 1008.89 1008.82 1008.70 1008.58 1008.52 1008.56 1008.73 1009.01 1009.38 1009.80 1010.22 1010.60 1010.91 1011.14 1011.30 1011.39 1011.43
1008.90 1008.98 1009.19 1009.45 1009.67 1009.72 1009.51 1009.02 1008.26 1007.33 1006.37 1005.51 1004.87 1004.54 1004.53 1004.80 1005.27 1005.81 1006.33 1006.73 1007.00 1007.13 1007.18 1007.22 1007.31 1007.51 1007.81 1008.21 1008.63 1009.02 1009.31 1009.46 1009.45 1009.31 1009.09 1008.86 1008.68 1008.61 1008.68 1008.88 1009.20 1009.58 1009.99 1010.38 1010.71 1010.98 1011.16 1011.29 1011.36
1008.63 1008.96 1009.42 1009.92 1010.30 1010.43 1010.23 1009.64 1008.72 1007.57 1006.36 1005.26 1004.42 1003.92 1003.81 1004.05 1004.55 1005.17 1005.80 1006.34 1006.74 1007.02 1007.20 1007.35 1007.55 1007.83 1008.22 1008.69 1009.18 1009.62 1009.95 1010.11 1010.09 1009.91 1009.63 1009.31 1009.03 1008.84 1008.79 1008.89 1009.11 1009.43 1009.78 1010.15 1010.48 1010.76 1010.98 1011.15 1011.26
1008.45 1009.04 1009.75 1010.46 1010.99 1011.19 1010.96 1010.27 1009.18 1007.82 1006.37 1005.04 1003.99 1003.34 1003.13 1003.31 1003.81 1004.49 1005.21 1005.87 1006.40 1006.79 1007.09 1007.35 1007.64 1008.01 1008.48 1009.02 1009.57 1010.08 1010.46 1010.67 1010.68 1010.50 1010.20 1009.83 1009.47 1009.19 1009.03 1009.01 1009.12 1009.34 1009.62 1009.93 1010.24 1010.53 1010.78 1010.99 1011.16
1008.42 1009.24 1010.17 1011.04 1011.68 1011.92 1011.65 1010.88 1009.64 1008.10 1006.47 1004.95 1003.73 1002.94 1002.62 1002.75 1003.24 1003.93 1004.70 1005.43 1006.04 1006.52 1006.90 1007.23 1007.58 1008.01 1008.52 1009.11 1009.72 1010.29 1010.74 1011.01 1011.08 1010.95 1010.67 1010.29 1009.90 1009.56 1009.31 1009.18 1009.19 1009.30 1009.50 1009.74 1010.02 1010.29 1010.56 1010.81 1011.04
1008.56 1009.55 1010.62 1011.60 1012.30 1012.55 1012.26 1011.41 1010.08 1008.43 1006.68 1005.04 1003.71 1002.83 1002.44 1002.51 1002.96 1003.65 1004.42 1005.16 1005.79 1006.30 1006.69 1007.04 1007.40 1007.83 1008.35 1008.95 1009.59 1010.20 1010.71 1011.05 1011.20 1011.15 1010.93 1010.60 1010.22 1009.85 1009.55 1009.35 1009.27 1009.29 1009.40 1009.58 1009.80 1010.06 1010.33 1010.61 1010.88
1008.87 1009.94 1011.07 1012.08 1012.78 1013.02 1012.70 1011.82 1010.47 1008.79 1007.02 1005.36 1004.01 1003.10 1002.67 1002.70 1003.11 1003.74 1004.47 1005.16 1005.75 1006.21 1006.56 1006.85 1007.16 1007.54 1008.01 1008.58 1009.20 1009.83 1010.37 1010.78 1011.02 1011.06 1010.93 1010.68 1010.35 1010.01 1009.70 1009.46 1009.32 1009.27 1009.31 1009.43 1009.61 1009.84 1010.10 1010.39 1010.69
1009.30 1010.35 1011.44 1012.40 1013.05 1013.26 1012.93 1012.07 1010.77 1009.17 1007.48 1005.91 1004.62 1003.75 1003.33 1003.34 1003.69 1004.25 1004.89 1005.49 1005.97 1006.33 1006.58 1006.77 1006.97 1007.24 1007.62 1008.11 1008.68 1009.27 1009.82 1010.27 1010.58 1010.71 1010.69 1010.53 1010.29 1010.01 1009.73 1009.50 1009.33 1009.24 1009.23 1009.30 1009.43 1009.63 1009.87 1010.15 1010.45
1009.77 1010.70 1011.66 1012.50 1013.07 1013.23 1012.91 1012.13 1010.95 1009.52 1008.01 1006.62 1005.49 1004.72 1004.35 1004.36 1004.66 1005.13 1005.65 1006.12 1006.47 1006.69 1006.80 1006.85 1006.91 1007.05 1007.30 1007.67 1008.14 1008.67 1009.19 1009.64 1009.99 1010.19 1010.26 1010.21 1010.06 1009.87 1009.65 1009.46 1009.30 1009.21 1009.17 1009.20 1009.30 1009.45 1009.66 1009.91 1010.19
1010.18 1010.92 1011.70 1012.38 1012.82 1012.94 1012.66 1011.99 1011.00 1009.81 1008.56 1007.42 1006.50 1005.89 1005.61 1005.63 1005.89 1006.26 1006.66 1006.98 1007.18 1007.25 1007.22 1007.13 1007.05 1007.05 1007.16 1007.40 1007.75 1008.17 1008.61 1009.03 1009.38 1009.62 1009.76 1009.79 1009.75 1009.64 1009.51 1009.38 1009.27 1009.18 1009.15 1009.15 1009.21 1009.33 1009.49 1009.69 1009.93
1010.48 1011.00 1011.56 1012.06 1012.39 1012.46 1012.24 1011.72 1010.95 1010.03 1009.08 1008.22 1007.54 1007.10 1006.92 1006.97 1007.18 1007.47 1007.74 1007.93 1008.00 1007.94 1007.79 1007.58 1007.39 1007.27 1007.25 1007.35 1007.57 1007.86 1008.21 1008.55 1008.86 1009.11 1009.28 1009.38 1009.41 1009.40 1009.36 1009.30 1009.24 1009.19 1009.16 1009.15 1009.18 1009.25 1009.35 1009.50 1009.67
Thickness
5837 5835 5832 5821 5799 5778 5774 5792 5807 5812 5815 5824 5828 5821 5808 5799 5789 5777 5798 5805 5801 5797 5794 5792 5789 5788 5786 5784 5783 5782 5781 5780 5779 5778 5777 5776 5775 5773 5772 5771 5770 5768 5767 5766 5765 5764 5763 5762 5762
5837 5835 5824 5808 5781 5760 5772 5796 5805 5815 5822 5829 5827 5820 5810 5801 5807 5800 5800 5801 5800 5797 5794 5791 5789 5787 5785 5783 5781 5780 5779 5778 5777 5776 5775 5774 5773 5771 5770 5769 5768 5767 5765 5764 5763 5762 5761 5760 5760
5837 5834 5812 5792 5776 5767 5778 5800 5809 5823 5833 5831 5821 5819 5810 5803 5807 5804 5804 5803 5800 5796 5793 5791 5788 5786 5784 5782 5780 5779 5778 5777 5776 5775 5773 5772 5771 5770 5769 5767 5767 5765 5764 5762 5761 5760 5759 5757 5757
5832 5819 5806 5784 5776 5790 5799 5808 5817 5819 5824 5828 5821 5808 5810 5817 5815 5810 5807 5803 5799 5795 5792 5790 5787 5785 5783 5781 5780 5778 5777 5776 5774 5773 5772 5771 5769 5768 5767 5766 5765 5763 5762 5761 5759 5758 5757 5755 5755
5826 5804 5785 5771 5778 5798 5814 5822 5823 5815 5816 5820 5819 5801 5800 5815 5819 5813 5807 5803 5798 5793 5791 5789 5787 5784 5783 5781 5779 5778 5777 5775 5774 5772 5770 5769 5768 5767 5765 5764 5763 5762 5760 5759 5758 5756 5755 5754 5753
5808 5793 5769 5761 5778 5802 5815 5825 5824 5816 5814 5816 5813 5801 5797 5812 5812 5809 5807 5802 5799 5794 5791 5788 5786 5784 5782 5780 5778 5777 5776 5775 5773 5771 5769 5768 5767 5765 5764 5762 5761 5760 5759 5758 5756 5755 5753 5752 5751
5799 5784 5770 5773 5779 5793 5812 5825 5821 5815 5814 5816 5818 5798 5797 5805 5810 5809 5805 5801 5798 5794 5790 5787 5785 5782 5780 5779 5778 5776 5775 5774 5772 5770 5769 5767 5766 5764 5763 5761 5760 5759 5758 5756 5755 5754 5752 5751 5750
5810 5787 5776 5775 5779 5790 5816 5823 5825 5821 5817 5826 5822 5799 5793 5805 5811 5807 5802 5798 5795 5791 5789 5786 5784 5781 5780 5778 5776 5775 5774 5772 5771 5769 5767 5766 5765 5764 5762 5760 5759 5758 5757 5756 5754 5753 5751 5750 5749
5816 5779 5768 5779 5784 5796 5817 5817 5823 5830 5823 5822 5823 5816 5813 5814 5810 5801 5795 5791 5789 5788 5787 5785 5783 5780 5779 5777 5775 5774 5773 5771 5769 5768 5766 5765 5764 5763 5761 5760 5758 5757 5756 5755 5754 5752 5751 5749 5747
5801 5773 5783 5801 5806 5806 5814 5814 5817 5814 5808 5809 5812 5816 5817 5813 5805 5796 5791 5787 5786 5785 5785 5785 5783 5780 5778 5777 5775 5773 5771 5770 5768 5766 5765 5763 5762 5761 5760 5759 5758 5756 5755 5754 5753 5752 5750 5749 5747
5802 5790 5801 5810 5817 5817 5813 5814 5819 5807 5798 5804 5806 5808 5810 5807 5802 5796 5792 5791 5789 5788 5786 5785 5784 5780 5778 5777 5774 5772 5770 5769 5767 5765 5763 5762 5760 5759 5758 5758 5756 5755 5754 5752 5751 5750 5749 5748 5747
5802 5807 5811 5815 5821 5817 5814 5814 5812 5809 5809 5819 5820 5816 5810 5805 5801 5798 5794 5791 5791 5788 5787 5787 5785 5781 5779 5777 5775 5772 5770 5768 5766 5765 5763 5761 5759 5758 5757 5757 5756 5754 5753 5751 5750 5749 5748 5747 5746
5800 5805 5815 5819 5819 5818 5817 5810 5810 5810 5819 5821 5818 5813 5808 5804 5802 5801 5798 5795 5792 5790 5788 5787 5785 5783 5780 5777 5774 5771 5769 5768 5766 5764 5762 5761 5759 5757 5756 5755 5754 5753 5751 5750 5749 5748 5747 5746 5745
5803 5806 5810 5814 5816 5816 5810 5807 5806 5806 5816 5813 5810 5808 5807 5804 5801 5798 5796 5793 5792 5791 5789 5788 5785 5783 5780 5777 5774 5772 5769 5767 5765 5764 5762 5760 5759 5757 5755 5753 5752 5751 5750 5749 5748 5747 5745 5744 5744
5808 5798 5798 5807 5811 5812 5808 5794 5800 5809 5810 5804 5805 5805 5803 5801 5800 5797 5796 5795 5792 5790 5789 5786 5784 5782 5779 5776 5774 5771 5768 5766 5764 5762 5761 5760 5759 5757 5754 5752 5751 5750 5749 5748 5746 5745 5744 5743 5742
5795 5783 5774 5795 5806 5810 5797 5774 5798 5808 5804 5798 5799 5800 5799 5798 5798 5798 5798 5795 5793 5790 5786 5785 5784 5780 5777 5774 5772 5770 5767 5764 5762 5761 5760 5758 5757 5755 5753 5751 5750 5749 5747 5746 5744 5742 5740 5739 5738
5770 5762 5766 5782 5803 5803 5791 5777 5795 5804 5801 5794 5795 5795 5795 5793 5795 5796 5796 5795 5792 5789 5786 5783 5781 5778 5775 5773 5770 5768 5766 5763 5761 5759 5758 5756 5755 5754 5752 5750 5749 5747 5746 5744 5743 5740 5738 5736 5735
5753 5758 5764 5770 5791 5793 5782 5779 5791 5799 5799 5794 5792 5792 5792 5791 5793 5795 5794 5793 5790 5787 5785 5782 5779 5776 5773 5770 5767 5764 5762 5761 5760 5758 5756 5755 5753 5751 5749 5748 5746 5745 5743 5742 5740 5738 5737 5735 5734
5767 5762 5760 5773 5791 5784 5777 5778 5787 5795 5793 5790 5788 5789 5789 5791 5793 5793 5792 5790 5787 5783 5781 5778 5775 5773 5771 5766 5762 5759 5757 5756 5755 5755 5754 5753 5751 5749 5747 5746 5744 5743 5740 5739 5738 5736 5734 5732 5732
5765 5757 5759 5772 5787 5782 5772 5773 5785 5792 5791 5791 5789 5788 5787 5786 5786 5786 5785 5785 5783 5780 5777 5775 5773 5771 5769 5766 5762 5760 5756 5754 5753 5752 5751 5750 5749 5747 5746 5744 5742 5740 5738 5736 5736 5734 5731 5730 5730
5762 5759 5760 5763 5775 5778 5768 5759 5772 5783 5790 5790 5791 5791 5790 5789 5785 5784 5782 5781 5780 5777 5775 5774 5771 5769 5767 5764 5761 5757 5753 5750 5748 5747 5746 5747 5746 5745 5743 5741 5740 5738 5736 5734 5733 5732 5729 5726 5727
5754 5775 5773 5767 5755 5744 5756 5730 5756 5772 5775 5781 5784 5786 5788 5790 5787 5784 5782 5779 5777 5776 5775 5772 5768 5766 5764 5762 5758 5753 5747 5743 5744 5744 5743 5743 5743 5742 5740 5738 5737 5735 5734 5732 5731 5731 5729 5726 5723
5767 5779 5773 5767 5753 5740 5745 5731 5742 5763 5763 5772 5779 5784 5787 5790 5787 5783 5782 5780 5777 5775 5772 5768 5765 5763 5761 5759 5756 5751 5746 5744 5743 5742 5740 5739 5739 5738 5737 5735 5734 5732 5731 5730 5729 5728 5727 5725 5723
5779 5769 5760 5748 5734 5720 5736 5730 5732 5752 5765 5771 5777 5783 5786 5787 5786 5782 5780 5777 5774 5772 5768 5765 5761 5758 5758 5756 5753 5749 5744 5741 5739 5736 5734 5734 5734 5734 5733 5732 5731 5729 5728 5727 5726 5726 5724 5723 5722
5765 5737 5714 5711 5703 5710 5738 5733 5735 5764 5777 5778 5779 5782 5785 5785 5782 5778 5775 5772 5770 5768 5765 5760 5757 5754 5754 5752 5749 5746 5743 5740 5737 5734 5732 5730 5729 5729 5729 5729 5728 5727 5726 5725 5724 5723 5721 5720 5719
5752 5737 5708 5696 5695 5708 5730 5727 5746 5771 5780 5783 5783 5782 5781 5778 5778 5776 5773 5770 5768 5765 5762 5758 5754 5751 5750 5748 5745 5743 5740 5737 5734 5732 5731 5729 5727 5727 5727 5726 5725 5724 5723 5722 5721 5719 5718 5717 5716
5747 5735 5735 5714 5709 5702 5711 5730 5749 5766 5767 5769 5771 5772 5771 5771 5772 5771 5769 5766 5764 5761 5759 5756 5752 5748 5746 5743 5741 5738 5736 5733 5731 5729 5728 5726 5725 5725 5723 5722 5721 5720 5719 5718 5717 5716 5715 5714 5713
5757 5745 5722 5707 5693 5688 5705 5717 5725 5742 5748 5755 5758 5760 5762 5765 5766 5766 5764 5761 5759 5758 5755 5752 5749 5745 5742 5739 5736 5735 5732 5730 5728 5725 5723 5722 5721 5721 5719 5718 5717 5716 5715 5714 5713 5711 5711 5710 5708
5741 5735 5720 5705 5700 5688 5685 5706 5747 5747 5749 5750 5753 5757 5758 5758 5758 5759 5757 5756 5753 5751 5748 5745 5743 5740 5737 5735 5732 5730 5728 5726 5723 5721 5720 5719 5718 5716 5715 5714 5712 5711 5710 5710 5708 5707 5706 5705 5703
5742 5731 5717 5698 5696 5695 5689 5706 5754 5752 5751 5751 5751 5754 5755 5753 5752 5751 5751 5749 5746 5743 5740 5738 5737 5734 5733 5731 5728 5726 5723 5721 5718 5717 5716 5715 5713 5712 5711 5710 5708 5706 5706 5705 5703 5702 5701 5700 5698